TimeCDT,TemperatureF,Dew PointF,Humidity,Sea Level PressureIn,VisibilityMPH,Wind Direction,Wind SpeedMPH,Gust SpeedMPH,PrecipitationIn,Events,Conditions,WindDirDegrees,DateUTC
12:15 AM,-2.2,-7.6,78,30.31,0.2,Calm,Calm,-,N/A,Fog,Light Freezing Fog,0,2013-03-26 05:15:00
12:35 AM,-4.0,-7.6,85,30.31,0.8,Calm,Calm,-,N/A,,Overcast,0,2013-03-26 05:35:00
12:55 AM,-7.6,-11.2,84,30.30,0.5,Calm,Calm,-,N/A,Fog,Light Freezing Fog,0,2013-03-26 05:55:00
1:15 AM,-7.6,-11.2,84,30.30,0.2,Calm,Calm,-,N/A,Fog,Light Freezing Fog,0,2013-03-26 06:15:00
1:35 AM,-5.8,-9.4,84,30.30,0.5,Calm,Calm,-,N/A,Fog,Light Freezing Fog,0,2013-03-26 06:35:00
1:55 AM,-7.6,-11.2,84,30.30,0.2,Calm,Calm,-,N/A,,Haze,0,2013-03-26 06:55:00
2:15 AM,-7.6,-13.0,77,30.30,0.2,Calm,Calm,-,N/A,,Haze,0,2013-03-26 07:15:00
2:35 AM,-7.6,-11.2,84,30.29,0.2,Calm,Calm,-,N/A,Fog,Light Freezing Fog,0,2013-03-26 07:35:00
2:55 AM,-9.4,-13.0,84,30.29,0.2,Calm,Calm,-,N/A,Fog,Light Freezing Fog,0,2013-03-26 07:55:00
3:15 AM,-9.4,-13.0,84,30.29,0.2,Calm,Calm,-,N/A,Fog,Light Freezing Fog,0,2013-03-26 08:15:00
3:35 AM,-9.4,-13.0,84,30.28,0.2,Calm,Calm,-,N/A,,Haze,0,2013-03-26 08:35:00
3:55 AM,-9.4,-13.0,84,30.28,0.2,Calm,Calm,-,N/A,Fog,Light Freezing Fog,0,2013-03-26 08:55:00
4:15 AM,-9.4,-13.0,84,30.27,0.2,Calm,Calm,-,N/A,Fog,Light Freezing Fog,0,2013-03-26 09:15:00
4:35 AM,-9.4,-13.0,84,30.27,0.2,ESE,4.6,-,N/A,,Haze,120,2013-03-26 09:35:00
4:55 AM,-9.4,-13.0,84,30.27,0.2,Calm,Calm,-,N/A,,Haze,0,2013-03-26 09:55:00
5:15 AM,-9.4,-13.0,84,30.27,0.2,Calm,Calm,-,N/A,,Haze,0,2013-03-26 10:15:00
5:35 AM,-9.4,-13.0,84,30.27,0.2,SE,3.5,-,N/A,Snow,Heavy Snow,130,2013-03-26 10:35:00
5:55 AM,-9.4,-14.8,77,30.27,0.2,Calm,Calm,-,N/A,,Haze,0,2013-03-26 10:55:00
6:15 AM,-11.2,-16.6,77,30.26,0.2,Calm,Calm,-,N/A,,Haze,0,2013-03-26 11:15:00
6:35 AM,-11.2,-16.6,77,30.26,0.2,East,4.6,-,N/A,,Haze,100,2013-03-26 11:35:00
6:55 AM,-11.2,-16.6,77,30.26,0.5,ESE,3.5,-,N/A,,Haze,110,2013-03-26 11:55:00
7:15 AM,-11.2,-16.6,77,30.26,1.8,ESE,3.5,-,N/A,,Haze,120,2013-03-26 12:15:00
7:35 AM,-11.2,-16.6,77,30.26,3.0,ESE,4.6,-,N/A,,Haze,110,2013-03-26 12:35:00
7:55 AM,-13.0,-16.6,84,30.26,6.0,ESE,3.5,-,N/A,,Overcast,120,2013-03-26 12:55:00
8:15 AM,-9.4,-14.8,77,30.26,5.0,SE,4.6,-,N/A,,Haze,130,2013-03-26 13:15:00
8:35 AM,-5.8,-11.2,77,30.26,9.0,SSE,4.6,-,N/A,,Clear,150,2013-03-26 13:35:00
8:55 AM,-5.8,-9.4,84,30.27,9.0,SE,4.6,-,N/A,Snow,Light Snow,140,2013-03-26 13:55:00
9:15 AM,-4.0,-9.4,78,30.26,10.0,SSE,4.6,-,N/A,Snow,Light Snow,150,2013-03-26 14:15:00
9:35 AM,-4.0,-7.6,85,30.26,10.0,ESE,4.6,-,N/A,Snow,Light Snow,120,2013-03-26 14:35:00
9:55 AM,-0.4,-4.0,85,30.26,10.0,SE,3.5,-,N/A,Snow,Light Snow,140,2013-03-26 14:55:00
10:15 AM,1.4,-0.4,92,30.27,10.0,ESE,5.8,-,N/A,Snow,Light Snow,110,2013-03-26 15:15:00
10:35 AM,5.0,1.4,85,30.27,10.0,ESE,4.6,-,N/A,Snow,Light Snow,120,2013-03-26 15:35:00
10:55 AM,6.8,5.0,92,30.26,9.0,SE,4.6,-,N/A,,Partly Cloudy,130,2013-03-26 15:55:00
11:15 AM,8.6,6.8,92,30.26,10.0,SE,5.8,-,N/A,Snow,Light Snow,140,2013-03-26 16:15:00
11:35 AM,10.4,8.6,92,30.26,10.0,SE,8.1,-,N/A,Snow,Light Snow,140,2013-03-26 16:35:00
11:55 AM,12.2,10.4,92,30.25,10.0,SE,5.8,-,N/A,,Clear,140,2013-03-26 16:55:00
12:15 PM,14.0,12.2,93,30.25,10.0,SE,4.6,-,N/A,Snow,Light Snow,130,2013-03-26 17:15:00
12:35 PM,14.0,14.0,100,30.24,10.0,SE,8.1,-,N/A,,Clear,140,2013-03-26 17:35:00
12:55 PM,15.8,14.0,93,30.24,10.0,SE,6.9,-,N/A,Snow,Light Snow,130,2013-03-26 17:55:00
1:15 PM,15.8,14.0,93,30.24,10.0,ESE,5.8,-,N/A,,Clear,110,2013-03-26 18:15:00
1:35 PM,17.6,15.8,93,30.24,10.0,SSE,5.8,-,N/A,,Clear,150,2013-03-26 18:35:00
1:55 PM,17.6,15.8,93,30.24,10.0,SE,8.1,-,N/A,Snow,Light Snow,140,2013-03-26 18:55:00
2:15 PM,17.6,14.0,86,30.23,10.0,SE,5.8,-,N/A,Snow,Light Snow,140,2013-03-26 19:15:00
2:35 PM,17.6,14.0,86,30.23,10.0,ESE,6.9,-,N/A,Snow,Light Snow,120,2013-03-26 19:35:00
2:55 PM,17.6,14.0,86,30.23,10.0,ESE,8.1,-,N/A,Snow,Light Snow,110,2013-03-26 19:55:00
3:15 PM,17.6,14.0,86,30.22,10.0,ESE,8.1,-,N/A,,Clear,120,2013-03-26 20:15:00
3:35 PM,17.6,14.0,86,30.22,10.0,ESE,8.1,-,N/A,Snow,Light Snow,120,2013-03-26 20:35:00
3:55 PM,17.6,14.0,86,30.22,10.0,ESE,10.4,-,N/A,,Clear,120,2013-03-26 20:55:00
4:15 PM,17.6,14.0,86,30.21,10.0,ESE,11.5,-,N/A,Snow,Light Snow,110,2013-03-26 21:15:00
4:35 PM,15.8,14.0,93,30.21,10.0,ESE,11.5,-,N/A,,Clear,120,2013-03-26 21:35:00
4:55 PM,15.8,14.0,93,30.21,10.0,ESE,10.4,-,N/A,,Clear,120,2013-03-26 21:55:00
5:15 PM,15.8,12.2,86,30.21,10.0,ESE,11.5,-,N/A,,Clear,120,2013-03-26 22:15:00
5:35 PM,15.8,12.2,86,30.21,10.0,ESE,8.1,-,N/A,,Clear,110,2013-03-26 22:35:00
5:55 PM,15.8,12.2,86,30.20,10.0,ESE,9.2,-,N/A,,Clear,120,2013-03-26 22:55:00
6:15 PM,14.0,10.4,86,30.20,10.0,ESE,9.2,-,N/A,,Clear,120,2013-03-26 23:15:00
6:35 PM,14.0,10.4,86,30.21,10.0,SE,5.8,-,N/A,,Clear,130,2013-03-26 23:35:00
6:55 PM,14.0,10.4,86,30.21,10.0,ESE,8.1,-,N/A,,Clear,120,2013-03-26 23:55:00
7:15 PM,10.4,6.8,85,30.21,10.0,ESE,9.2,-,N/A,,Clear,120,2013-03-27 00:15:00
7:35 PM,8.6,6.8,92,30.21,10.0,ESE,10.4,-,N/A,,Clear,120,2013-03-27 00:35:00
7:55 PM,8.6,6.8,92,30.21,10.0,ESE,9.2,-,N/A,,Clear,120,2013-03-27 00:55:00
8:15 PM,8.6,6.8,92,30.21,10.0,SE,6.9,-,N/A,,Clear,130,2013-03-27 01:15:00
8:35 PM,6.8,6.8,100,30.21,10.0,ESE,5.8,-,N/A,,Clear,120,2013-03-27 01:35:00
8:55 PM,6.8,5.0,92,30.21,10.0,ESE,9.2,-,N/A,,Clear,120,2013-03-27 01:55:00
9:15 PM,5.0,1.4,85,30.22,10.0,ESE,8.1,-,N/A,,Clear,120,2013-03-27 02:15:00
9:35 PM,5.0,1.4,85,30.22,10.0,ESE,9.2,-,N/A,,Clear,110,2013-03-27 02:35:00
9:55 PM,5.0,1.4,85,30.22,10.0,ESE,9.2,-,N/A,,Clear,110,2013-03-27 02:55:00
10:15 PM,5.0,1.4,85,30.22,10.0,ESE,9.2,-,N/A,Snow,Light Snow,120,2013-03-27 03:15:00
10:35 PM,5.0,1.4,85,30.22,10.0,ESE,10.4,-,N/A,Snow,Light Snow,120,2013-03-27 03:35:00
10:55 PM,5.0,3.2,92,30.22,10.0,ESE,8.1,-,N/A,Snow,Light Snow,120,2013-03-27 03:55:00
11:15 PM,5.0,3.2,92,30.22,10.0,SE,6.9,-,N/A,,Clear,130,2013-03-27 04:15:00
11:35 PM,1.4,-0.4,92,30.22,10.0,ESE,8.1,-,N/A,Snow,Light Snow,120,2013-03-27 04:35:00
11:55 PM,-0.4,-2.2,92,30.22,10.0,ESE,6.9,-,N/A,,Clear,110,2013-03-27 04:55:00